Cosmos 1452 Rocket - Orbit

View from above orbital plane
View from above orbital plane
View from above satellite
View from above satellite

Ground track
Ground track

The orbit data is extracted from the following two-line orbital elements,

1 13992U 83031B   13139.78642839  .00000206  00000-0  80661-4 0  1370
2 13992 074.0537 217.9326 0005446 221.6757 287.4594 14.35550191575034
Epoch (UTC): 19 May 2013 18:52:27
Eccentricity: 0.0005446
inclination: 74.0537°
perigee height: 769 km
apogee height: 777 km
right ascension of ascending node: 217.9326°
argument of perigee: 221.6757°
revolutions per day: 14.35550191
mean anomaly at epoch: 287.4594°
orbit number at epoch: 57503

The dashed part of the orbit path shows where the satellite is in the earth's shadow,  

Developed and maintained by Chris Peat, Heavens-Above GmbH. Please read the updated FAQ before sending e-mail. Imprint. DLR